Time,TemperatureF,DewpointF,PressureIn,WindDirection,WindDirectionDegrees,WindSpeedMPH,WindSpeedGustMPH,Humidity,HourlyPrecipIn,Conditions,Clouds,dailyrainin,SoftwareType,DateUTC
2013-11-25 00:00:00,21.9,17.8,30.10,South,179,12.6,12.6,84,0.00,,,0.00,VWS V14.01,2013-11-25 05:00:00,
2013-11-25 00:01:00,22.0,17.9,30.10,South,174,7.0,14.0,84,0.00,,,0.00,VWS V14.01,2013-11-25 05:01:00,
2013-11-25 00:06:00,22.0,17.9,30.10,SSW,200,7.0,16.8,84,0.00,,,0.00,VWS V14.01,2013-11-25 05:06:00,
2013-11-25 00:11:00,22.1,18.0,30.09,SSE,168,12.6,18.2,84,0.00,,,0.00,VWS V14.01,2013-11-25 05:11:00,
2013-11-25 00:16:00,22.2,18.1,30.09,SSE,165,7.0,18.2,84,0.00,,,0.00,VWS V14.01,2013-11-25 05:16:00,
2013-11-25 00:21:00,22.3,18.2,30.08,SSW,210,11.2,19.6,84,0.00,,,0.00,VWS V14.01,2013-11-25 05:21:00,
2013-11-25 00:26:00,22.5,18.4,30.08,SSE,166,11.2,19.6,84,0.00,,,0.00,VWS V14.01,2013-11-25 05:26:00,
2013-11-25 00:31:00,22.6,18.5,30.08,SSE,160,5.6,19.6,84,0.00,,,0.00,VWS V14.01,2013-11-25 05:31:00,
2013-11-25 00:36:00,22.7,18.6,30.07,SSE,166,5.6,19.6,84,0.00,,,0.00,VWS V14.01,2013-11-25 05:36:00,
2013-11-25 00:41:00,22.8,18.7,30.07,SSE,156,8.4,19.6,84,0.00,,,0.00,VWS V14.01,2013-11-25 05:41:00,
2013-11-25 00:46:00,22.8,19.0,30.07,SSW,200,12.6,19.6,85,0.00,,,0.00,VWS V14.01,2013-11-25 05:46:00,
2013-11-25 00:51:00,22.9,18.8,30.06,SSE,160,5.6,19.6,84,0.00,,,0.00,VWS V14.01,2013-11-25 05:51:00,
2013-11-25 00:56:00,23.0,18.9,30.06,SSE,166,2.8,19.6,84,0.00,,,0.00,VWS V14.01,2013-11-25 05:56:00,
2013-11-25 01:00:00,22.8,19.2,30.01,WSW,256,0.0,19.6,86,0.00,,,0.00,VWS V14.01,2013-11-25 06:00:00,
2013-11-25 01:01:00,23.0,18.9,30.05,South,172,9.8,19.6,84,0.00,,,0.00,VWS V14.01,2013-11-25 06:01:00,
2013-11-25 01:06:00,23.2,19.1,30.05,SSW,205,4.2,19.6,84,0.00,,,0.00,VWS V14.01,2013-11-25 06:06:00,
2013-11-25 01:11:00,23.2,19.4,30.04,South,190,2.8,19.6,85,0.00,,,0.00,VWS V14.01,2013-11-25 06:11:00,
2013-11-25 01:16:00,23.2,19.4,30.04,SSE,150,4.2,19.6,85,0.00,,,0.00,VWS V14.01,2013-11-25 06:16:00,
2013-11-25 01:21:00,23.2,19.4,30.03,SSE,163,4.2,19.6,85,0.00,,,0.00,VWS V14.01,2013-11-25 06:21:00,
2013-11-25 01:26:00,23.2,19.4,30.03,SSW,198,4.2,19.6,85,0.00,,,0.00,VWS V14.01,2013-11-25 06:26:00,
2013-11-25 01:31:00,23.3,19.5,30.03,SE,129,9.8,19.6,85,0.00,,,0.00,VWS V14.01,2013-11-25 06:31:00,
2013-11-25 01:36:00,23.5,19.7,30.02,South,187,2.8,19.6,85,0.00,,,0.00,VWS V14.01,2013-11-25 06:36:00,
2013-11-25 01:41:00,23.4,19.6,30.02,SSW,207,2.8,19.6,85,0.00,,,0.00,VWS V14.01,2013-11-25 06:41:00,
2013-11-25 01:46:00,23.2,19.6,30.02,South,184,2.8,19.6,86,0.00,,,0.00,VWS V14.01,2013-11-25 06:46:00,
2013-11-25 01:51:00,23.1,19.5,30.01,SSW,206,1.4,19.6,86,0.00,,,0.00,VWS V14.01,2013-11-25 06:51:00,
2013-11-25 01:56:00,22.8,19.2,30.01,South,174,4.2,19.6,86,0.00,,,0.00,VWS V14.01,2013-11-25 06:56:00,
2013-11-25 02:00:00,22.8,19.2,30.01,WSW,256,0.0,19.6,86,0.00,,,0.00,VWS V14.01,2013-11-25 07:00:00,
2013-11-25 02:01:00,22.7,19.1,30.01,SSW,203,1.4,1.4,86,0.00,,,0.00,VWS V14.01,2013-11-25 07:01:00,
2013-11-25 02:06:00,22.6,19.3,30.01,WSW,242,2.8,8.4,87,0.00,,,0.00,VWS V14.01,2013-11-25 07:06:00,
2013-11-25 02:11:00,22.6,19.3,30.00,SSW,203,1.4,8.4,87,0.00,,,0.00,VWS V14.01,2013-11-25 07:11:00,
2013-11-25 02:16:00,22.5,19.2,30.00,South,169,1.4,8.4,87,0.00,,,0.00,VWS V14.01,2013-11-25 07:16:00,
2013-11-25 02:21:00,22.7,19.7,30.00,SSE,166,5.6,8.4,88,0.00,,,0.00,VWS V14.01,2013-11-25 07:21:00,
2013-11-25 02:26:00,22.9,19.6,29.99,South,178,2.8,8.4,87,0.00,,,0.00,VWS V14.01,2013-11-25 07:26:00,
2013-11-25 02:31:00,23.1,20.1,29.99,South,169,4.2,8.4,88,0.00,,,0.00,VWS V14.01,2013-11-25 07:31:00,
2013-11-25 02:36:00,23.5,20.2,29.99,SW,218,2.8,8.4,87,0.00,,,0.00,VWS V14.01,2013-11-25 07:36:00,
2013-11-25 02:41:00,23.8,20.5,29.98,SSE,165,5.6,8.4,87,0.00,,,0.00,VWS V14.01,2013-11-25 07:41:00,
2013-11-25 02:46:00,23.9,20.6,29.98,SSW,196,2.8,8.4,87,0.00,,,0.00,VWS V14.01,2013-11-25 07:46:00,
2013-11-25 02:51:00,24.0,20.7,29.97,WSW,246,1.4,8.4,87,0.00,,,0.00,VWS V14.01,2013-11-25 07:51:00,
2013-11-25 02:56:00,24.1,20.8,29.97,SSE,160,2.8,9.8,87,0.00,,,0.00,VWS V14.01,2013-11-25 07:56:00,
2013-11-25 03:00:00,28.6,23.5,29.93,South,191,4.2,25.2,81,0.00,,,0.00,VWS V14.01,2013-11-25 08:00:00,
2013-11-25 03:01:00,24.4,20.8,29.97,SW,219,4.2,14.0,86,0.00,,,0.00,VWS V14.01,2013-11-25 08:01:00,
2013-11-25 03:06:00,24.6,21.0,29.97,South,184,4.2,14.0,86,0.00,,,0.00,VWS V14.01,2013-11-25 08:06:00,
2013-11-25 03:11:00,25.2,21.6,29.96,SW,236,4.2,14.0,86,0.00,,,0.00,VWS V14.01,2013-11-25 08:11:00,
2013-11-25 03:16:00,25.8,21.9,29.96,WSW,256,4.2,14.0,85,0.00,,,0.00,VWS V14.01,2013-11-25 08:16:00,
2013-11-25 03:21:00,26.6,22.4,29.96,WSW,255,4.2,23.8,84,0.00,,,0.00,VWS V14.01,2013-11-25 08:21:00,
2013-11-25 03:26:00,27.1,22.6,29.95,SW,232,8.4,23.8,83,0.00,,,0.00,VWS V14.01,2013-11-25 08:26:00,
2013-11-25 03:31:00,27.6,23.1,29.95,SSE,148,4.2,23.8,83,0.00,,,0.00,VWS V14.01,2013-11-25 08:31:00,
2013-11-25 03:36:00,28.0,23.2,29.94,WSW,248,8.4,25.2,82,0.00,,,0.00,VWS V14.01,2013-11-25 08:36:00,
2013-11-25 03:41:00,28.2,23.1,29.94,South,173,5.6,25.2,81,0.00,,,0.00,VWS V14.01,2013-11-25 08:41:00,
2013-11-25 03:46:00,28.3,23.2,29.94,WSW,255,18.2,25.2,81,0.00,,,0.00,VWS V14.01,2013-11-25 08:46:00,
2013-11-25 03:51:00,28.4,23.3,29.93,West,267,14.0,25.2,81,0.00,,,0.00,VWS V14.01,2013-11-25 08:51:00,
2013-11-25 03:56:00,28.6,23.5,29.93,WSW,239,5.6,25.2,81,0.00,,,0.00,VWS V14.01,2013-11-25 08:56:00,
2013-11-25 04:00:00,28.6,23.5,29.93,South,191,4.2,25.2,81,0.00,,,0.00,VWS V14.01,2013-11-25 09:00:00,
2013-11-25 04:01:00,28.7,23.6,29.93,WSW,238,7.0,11.2,81,0.00,,,0.00,VWS V14.01,2013-11-25 09:01:00,
2013-11-25 04:06:00,28.8,23.7,29.92,SW,232,5.6,19.6,81,0.00,,,0.00,VWS V14.01,2013-11-25 09:06:00,
2013-11-25 04:11:00,28.8,23.7,29.92,SW,224,5.6,19.6,81,0.00,,,0.00,VWS V14.01,2013-11-25 09:11:00,
2013-11-25 04:16:00,28.9,23.8,29.91,WSW,253,5.6,25.2,81,0.00,,,0.00,VWS V14.01,2013-11-25 09:16:00,
2013-11-25 04:21:00,29.0,23.9,29.91,WSW,256,5.6,25.2,81,0.00,,,0.00,VWS V14.01,2013-11-25 09:21:00,
2013-11-25 04:26:00,29.0,24.2,29.91,WSW,258,22.4,25.2,82,0.00,,,0.00,VWS V14.01,2013-11-25 09:26:00,
2013-11-25 04:31:00,29.1,24.3,29.91,West,266,5.6,25.2,82,0.00,,,0.00,VWS V14.01,2013-11-25 09:31:00,
2013-11-25 04:36:00,29.2,24.4,29.90,WSW,239,5.6,25.2,82,0.00,,,0.00,VWS V14.01,2013-11-25 09:36:00,
2013-11-25 04:41:00,29.2,24.4,29.90,SW,235,5.6,25.2,82,0.00,,,0.00,VWS V14.01,2013-11-25 09:41:00,
2013-11-25 04:46:00,29.2,24.7,29.90,WSW,248,5.6,25.2,83,0.00,,,0.00,VWS V14.01,2013-11-25 09:46:00,
2013-11-25 04:51:00,29.1,24.6,29.89,SW,221,11.2,25.2,83,0.00,,,0.00,VWS V14.01,2013-11-25 09:51:00,
2013-11-25 04:56:00,29.1,24.9,29.90,SW,235,5.6,25.2,84,0.00,,,0.00,VWS V14.01,2013-11-25 09:56:00,
2013-11-25 05:00:00,28.5,26.2,29.88,SW,236,7.0,29.4,91,0.00,,,0.00,VWS V14.01,2013-11-25 10:00:00,
2013-11-25 05:01:00,29.1,24.6,29.90,SW,230,8.4,25.2,83,0.00,,,0.00,VWS V14.01,2013-11-25 10:01:00,
2013-11-25 05:06:00,29.4,24.6,29.90,SSW,198,8.4,28.0,82,0.00,,,0.00,VWS V14.01,2013-11-25 10:06:00,
2013-11-25 05:11:00,29.5,24.7,29.89,SSW,212,8.4,28.0,82,0.00,,,0.00,VWS V14.01,2013-11-25 10:11:00,
2013-11-25 05:16:00,29.6,24.5,29.89,South,174,9.8,29.4,81,0.00,,,0.00,VWS V14.01,2013-11-25 10:16:00,
2013-11-25 05:21:00,29.6,24.8,29.90,SSW,203,7.0,29.4,82,0.00,,,0.00,VWS V14.01,2013-11-25 10:21:00,
2013-11-25 05:26:00,29.6,25.1,29.89,WSW,250,15.4,29.4,83,0.00,,,0.00,VWS V14.01,2013-11-25 10:26:00,
2013-11-25 05:31:00,29.5,25.3,29.89,SW,226,7.0,29.4,84,0.00,,,0.00,VWS V14.01,2013-11-25 10:31:00,
2013-11-25 05:36:00,29.2,25.5,29.89,SE,129,8.4,29.4,86,0.00,,,0.00,VWS V14.01,2013-11-25 10:36:00,
2013-11-25 05:41:00,28.9,25.8,29.88,SW,232,11.2,29.4,88,0.00,,,0.00,VWS V14.01,2013-11-25 10:41:00,
2013-11-25 05:46:00,28.8,26.0,29.88,SW,221,4.2,29.4,89,0.00,,,0.00,VWS V14.01,2013-11-25 10:46:00,
2013-11-25 05:51:00,28.7,25.9,29.89,West,270,4.2,29.4,89,0.00,,,0.00,VWS V14.01,2013-11-25 10:51:00,
2013-11-25 05:56:00,28.6,26.0,29.88,SW,221,4.2,29.4,90,0.00,,,0.00,VWS V14.01,2013-11-25 10:56:00,
2013-11-25 06:00:00,28.5,26.2,29.88,SW,236,7.0,29.4,91,0.00,,,0.00,VWS V14.01,2013-11-25 11:00:00,
2013-11-25 06:01:00,28.5,26.2,29.88,SW,235,7.0,9.8,91,0.00,,,0.00,VWS V14.01,2013-11-25 11:01:00,
2013-11-25 06:06:00,28.5,26.2,29.88,SW,232,5.6,11.2,91,0.00,,,0.00,VWS V14.01,2013-11-25 11:06:00,
2013-11-25 06:11:00,28.5,26.5,29.88,SSW,210,4.2,11.2,92,0.00,,,0.00,VWS V14.01,2013-11-25 11:11:00,
2013-11-25 06:16:00,28.5,26.5,29.87,WSW,239,9.8,12.6,92,0.00,,,0.00,VWS V14.01,2013-11-25 11:16:00,
2013-11-25 06:21:00,28.6,26.3,29.87,West,260,5.6,18.2,91,0.00,,,0.00,VWS V14.01,2013-11-25 11:21:00,
2013-11-25 06:26:00,28.6,26.6,29.87,SW,225,2.8,18.2,92,0.00,,,0.00,VWS V14.01,2013-11-25 11:26:00,
2013-11-25 06:31:00,28.6,26.6,29.86,SSW,197,2.8,18.2,92,0.00,,,0.00,VWS V14.01,2013-11-25 11:31:00,
2013-11-25 06:36:00,28.7,26.7,29.86,SW,231,7.0,18.2,92,0.00,,,0.00,VWS V14.01,2013-11-25 11:36:00,
2013-11-25 06:41:00,28.7,26.7,29.86,SW,230,5.6,19.6,92,0.00,,,0.00,VWS V14.01,2013-11-25 11:41:00,
2013-11-25 06:46:00,28.7,26.7,29.86,SW,229,8.4,19.6,92,0.00,,,0.00,VWS V14.01,2013-11-25 11:46:00,
2013-11-25 06:51:00,28.8,26.8,29.86,SSW,211,5.6,19.6,92,0.00,,,0.00,VWS V14.01,2013-11-25 11:51:00,
2013-11-25 06:56:00,28.8,26.8,29.85,SW,235,4.2,19.6,92,0.00,,,0.00,VWS V14.01,2013-11-25 11:56:00,
2013-11-25 07:00:00,29.4,26.6,29.83,West,275,12.6,25.2,89,0.00,,,0.00,VWS V14.01,2013-11-25 12:00:00,
2013-11-25 07:01:00,28.8,26.5,29.85,South,191,2.8,19.6,91,0.00,,,0.00,VWS V14.01,2013-11-25 12:01:00,
2013-11-25 07:06:00,28.8,26.8,29.85,SW,226,5.6,19.6,92,0.00,,,0.00,VWS V14.01,2013-11-25 12:06:00,
2013-11-25 07:11:00,28.9,26.9,29.84,WSW,246,7.0,19.6,92,0.00,,,0.00,VWS V14.01,2013-11-25 12:11:00,
2013-11-25 07:16:00,28.9,26.6,29.84,SW,232,4.2,19.6,91,0.00,,,0.00,VWS V14.01,2013-11-25 12:16:00,
2013-11-25 07:21:00,29.0,26.7,29.84,WSW,240,9.8,19.6,91,0.00,,,0.00,VWS V14.01,2013-11-25 12:21:00,
2013-11-25 07:26:00,29.1,26.5,29.84,SW,236,7.0,22.4,90,0.00,,,0.00,VWS V14.01,2013-11-25 12:26:00,
2013-11-25 07:31:00,29.1,26.5,29.84,West,259,4.2,22.4,90,0.00,,,0.00,VWS V14.01,2013-11-25 12:31:00,
2013-11-25 07:36:00,29.2,26.6,29.84,WSW,240,8.4,22.4,90,0.00,,,0.00,VWS V14.01,2013-11-25 12:36:00,
2013-11-25 07:41:00,29.2,26.6,29.84,SW,228,2.8,22.4,90,0.00,,,0.00,VWS V14.01,2013-11-25 12:41:00,
2013-11-25 07:46:00,29.2,26.6,29.84,SW,229,11.2,22.4,90,0.00,,,0.00,VWS V14.01,2013-11-25 12:46:00,
2013-11-25 07:51:00,29.3,26.7,29.83,SSW,213,2.8,25.2,90,0.00,,,0.00,VWS V14.01,2013-11-25 12:51:00,
2013-11-25 07:56:00,29.3,26.5,29.83,SW,226,7.0,25.2,89,0.00,,,0.00,VWS V14.01,2013-11-25 12:56:00,
2013-11-25 08:00:00,29.4,26.6,29.83,West,275,12.6,25.2,89,0.00,,,0.00,VWS V14.01,2013-11-25 13:00:00,
2013-11-25 08:01:00,29.4,26.6,29.83,West,270,7.0,15.4,89,0.00,,,0.00,VWS V14.01,2013-11-25 13:01:00,
2013-11-25 08:06:00,29.4,26.3,29.83,SSW,194,5.6,15.4,88,0.00,,,0.00,VWS V14.01,2013-11-25 13:06:00,
2013-11-25 08:11:00,29.6,26.5,29.83,WSW,240,5.6,23.8,88,0.00,,,0.00,VWS V14.01,2013-11-25 13:11:00,
2013-11-25 08:15:00,29.6,26.5,29.83,WNW,283,8.4,23.8,88,0.00,,,0.00,VWS V14.01,2013-11-25 13:15:00,
2013-11-25 08:20:00,29.6,26.5,29.83,SW,221,9.8,23.8,88,0.00,,,0.00,VWS V14.01,2013-11-25 13:20:00,
2013-11-25 08:25:00,29.6,26.8,29.83,SW,229,7.0,23.8,89,0.00,,,0.00,VWS V14.01,2013-11-25 13:25:00,
2013-11-25 08:30:00,29.5,26.9,29.83,WSW,255,4.2,23.8,90,0.00,,,0.00,VWS V14.01,2013-11-25 13:30:00,
2013-11-25 08:35:00,29.4,27.1,29.83,SW,232,18.2,23.8,91,0.00,,,0.00,VWS V14.01,2013-11-25 13:35:00,
2013-11-25 08:40:00,29.3,27.0,29.83,WSW,250,4.2,23.8,91,0.00,,,0.00,VWS V14.01,2013-11-25 13:40:00,
2013-11-25 08:46:00,29.3,27.3,29.83,West,277,5.6,23.8,92,0.00,,,0.00,VWS V14.01,2013-11-25 13:46:00,
2013-11-25 08:51:00,29.4,27.4,29.83,WSW,238,5.6,23.8,92,0.00,,,0.00,VWS V14.01,2013-11-25 13:51:00,
2013-11-25 08:56:00,29.5,27.2,29.83,WSW,245,11.2,26.6,91,0.00,,,0.00,VWS V14.01,2013-11-25 13:56:00,
2013-11-25 09:00:00,29.9,26.8,29.83,WSW,239,9.8,29.4,88,0.00,,,0.00,VWS V14.01,2013-11-25 14:00:00,
2013-11-25 09:01:00,29.5,27.2,29.83,WSW,257,2.8,26.6,91,0.00,,,0.00,VWS V14.01,2013-11-25 14:01:00,
2013-11-25 09:05:00,29.6,27.3,29.83,SW,236,7.0,26.6,91,0.00,,,0.00,VWS V14.01,2013-11-25 14:05:00,
2013-11-25 09:10:00,29.6,27.3,29.83,WSW,251,12.6,26.6,91,0.00,,,0.00,VWS V14.01,2013-11-25 14:10:00,
2013-11-25 09:15:00,29.7,27.1,29.83,WSW,241,9.8,26.6,90,0.00,,,0.00,VWS V14.01,2013-11-25 14:15:00,
2013-11-25 09:20:00,29.8,27.2,29.83,SW,225,7.0,26.6,90,0.00,,,0.00,VWS V14.01,2013-11-25 14:20:00,
2013-11-25 09:25:00,29.8,27.2,29.83,WSW,248,14.0,26.6,90,0.00,,,0.00,VWS V14.01,2013-11-25 14:25:00,
2013-11-25 09:30:00,29.9,27.1,29.82,WSW,242,2.8,26.6,89,0.00,,,0.00,VWS V14.01,2013-11-25 14:30:00,
2013-11-25 09:35:00,29.9,27.3,29.83,West,263,1.4,26.6,90,0.00,,,0.00,VWS V14.01,2013-11-25 14:35:00,
2013-11-25 09:40:00,29.9,27.3,29.83,WSW,249,4.2,26.6,90,0.00,,,0.00,VWS V14.01,2013-11-25 14:40:00,
2013-11-25 09:45:00,29.9,27.3,29.83,West,260,1.4,26.6,90,0.00,,,0.00,VWS V14.01,2013-11-25 14:45:00,
2013-11-25 09:50:00,29.9,27.1,29.83,SSW,203,22.4,26.6,89,0.00,,,0.00,VWS V14.01,2013-11-25 14:50:00,
2013-11-25 09:55:00,29.9,26.8,29.83,WSW,257,16.8,26.6,88,0.00,,,0.00,VWS V14.01,2013-11-25 14:55:00,
2013-11-25 10:00:00,29.8,26.7,29.83,WSW,238,9.8,23.8,88,0.00,,,0.00,VWS V14.01,2013-11-25 15:00:00,
2013-11-25 10:05:00,29.7,26.6,29.82,SSW,212,8.4,23.8,88,0.00,,,0.00,VWS V14.01,2013-11-25 15:05:00,
2013-11-25 10:10:00,29.6,26.5,29.82,SW,235,16.8,25.2,88,0.00,,,0.00,VWS V14.01,2013-11-25 15:10:00,
2013-11-25 10:15:00,29.7,26.3,29.82,WSW,247,9.8,29.4,87,0.00,,,0.00,VWS V14.01,2013-11-25 15:15:00,
2013-11-25 10:20:00,29.7,26.0,29.82,WNW,285,16.8,29.4,86,0.00,,,0.00,VWS V14.01,2013-11-25 15:20:00,
2013-11-25 10:25:00,29.7,26.0,29.82,West,264,5.6,30.8,86,0.00,,,0.00,VWS V14.01,2013-11-25 15:25:00,
2013-11-25 10:30:00,29.7,26.0,29.82,West,260,9.8,30.8,86,0.00,,,0.00,VWS V14.01,2013-11-25 15:30:00,
2013-11-25 10:35:00,29.8,26.1,29.82,West,271,4.2,30.8,86,0.00,,,0.00,VWS V14.01,2013-11-25 15:35:00,
2013-11-25 10:40:00,29.8,26.4,29.82,WSW,249,8.4,30.8,87,0.00,,,0.00,VWS V14.01,2013-11-25 15:40:00,
2013-11-25 10:45:00,29.9,26.2,29.81,SSW,205,1.4,30.8,86,0.00,,,0.00,VWS V14.01,2013-11-25 15:45:00,
2013-11-25 10:50:00,30.0,26.0,29.82,West,262,11.2,30.8,85,0.00,,,0.00,VWS V14.01,2013-11-25 15:50:00,
2013-11-25 10:55:00,30.0,26.0,29.82,WSW,255,12.6,30.8,85,0.00,,,0.00,VWS V14.01,2013-11-25 15:55:00,
2013-11-25 11:00:00,30.0,26.0,29.81,SW,230,19.6,30.8,85,0.00,,,0.00,VWS V14.01,2013-11-25 16:00:00,
2013-11-25 11:05:00,29.9,26.0,29.81,West,270,5.6,30.8,85,0.00,,,0.00,VWS V14.01,2013-11-25 16:05:00,
2013-11-25 11:10:00,29.9,26.0,29.81,SW,232,11.2,30.8,85,0.00,,,0.00,VWS V14.01,2013-11-25 16:10:00,
2013-11-25 11:15:00,29.9,26.0,29.81,WSW,238,11.2,30.8,85,0.00,,,0.00,VWS V14.01,2013-11-25 16:15:00,
2013-11-25 11:20:00,30.0,25.8,29.80,West,267,8.4,30.8,84,0.00,,,0.00,VWS V14.01,2013-11-25 16:20:00,
2013-11-25 11:25:00,30.1,25.9,29.80,SW,236,21.0,30.8,84,0.00,,,0.00,VWS V14.01,2013-11-25 16:25:00,
2013-11-25 11:30:00,30.2,25.7,29.80,SW,226,16.8,30.8,83,0.00,,,0.00,VWS V14.01,2013-11-25 16:30:00,
2013-11-25 11:35:00,30.3,25.8,29.80,SW,232,16.8,30.8,83,0.00,,,0.00,VWS V14.01,2013-11-25 16:35:00,
2013-11-25 11:40:00,30.3,25.8,29.80,WSW,245,18.2,30.8,83,0.00,,,0.00,VWS V14.01,2013-11-25 16:40:00,
2013-11-25 11:45:00,30.4,25.6,29.80,SSW,211,8.4,30.8,82,0.00,,,0.00,VWS V14.01,2013-11-25 16:45:00,
2013-11-25 11:50:00,30.4,25.9,29.80,SW,226,4.2,30.8,83,0.00,,,0.00,VWS V14.01,2013-11-25 16:50:00,
2013-11-25 11:55:00,30.5,25.7,29.80,SW,235,5.6,30.8,82,0.00,,,0.00,VWS V14.01,2013-11-25 16:55:00,
2013-11-25 12:00:00,30.6,25.5,29.80,SW,232,14.0,15.4,81,0.00,,,0.00,VWS V14.01,2013-11-25 17:00:00,
2013-11-25 12:05:00,30.6,25.5,29.79,SSW,212,7.0,21.0,81,0.00,,,0.00,VWS V14.01,2013-11-25 17:05:00,
2013-11-25 12:10:00,30.7,25.3,29.79,SSW,210,5.6,23.8,80,0.00,,,0.00,VWS V14.01,2013-11-25 17:10:00,
2013-11-25 12:15:00,30.7,25.3,29.79,West,262,1.4,23.8,80,0.00,,,0.00,VWS V14.01,2013-11-25 17:15:00,
2013-11-25 12:20:00,30.8,25.1,29.79,South,172,9.8,30.8,79,0.00,,,0.00,VWS V14.01,2013-11-25 17:20:00,
2013-11-25 12:25:00,30.8,25.1,29.80,West,262,8.4,30.8,79,0.00,,,0.00,VWS V14.01,2013-11-25 17:25:00,
2013-11-25 12:30:00,30.9,25.5,29.79,WNW,284,4.2,30.8,80,0.00,,,0.00,VWS V14.01,2013-11-25 17:30:00,
2013-11-25 12:35:00,31.0,25.6,29.79,WNW,284,7.0,30.8,80,0.00,,,0.00,VWS V14.01,2013-11-25 17:35:00,
2013-11-25 12:40:00,31.0,25.3,29.79,West,263,9.8,30.8,79,0.00,,,0.00,VWS V14.01,2013-11-25 17:40:00,
2013-11-25 12:45:00,31.1,25.4,29.79,WSW,249,18.2,30.8,79,0.00,,,0.00,VWS V14.01,2013-11-25 17:45:00,
2013-11-25 12:50:00,31.1,25.4,29.79,SW,224,5.6,30.8,79,0.00,,,0.00,VWS V14.01,2013-11-25 17:50:00,
2013-11-25 12:55:00,31.1,25.0,29.78,WSW,246,7.0,30.8,78,0.00,,,0.00,VWS V14.01,2013-11-25 17:55:00,
2013-11-25 13:00:00,31.0,25.0,29.78,West,271,7.0,30.8,78,0.00,,,0.00,VWS V14.01,2013-11-25 18:00:00,
2013-11-25 13:05:00,31.0,25.3,29.78,SW,228,9.8,30.8,79,0.00,,,0.00,VWS V14.01,2013-11-25 18:05:00,
2013-11-25 13:10:00,30.9,25.2,29.78,SW,225,5.6,30.8,79,0.00,,,0.00,VWS V14.01,2013-11-25 18:10:00,
2013-11-25 13:15:00,30.9,25.2,29.78,WSW,250,5.6,30.8,79,0.00,,,0.00,VWS V14.01,2013-11-25 18:15:00,
2013-11-25 13:20:00,30.9,25.5,29.78,West,274,5.6,30.8,80,0.00,,,0.00,VWS V14.01,2013-11-25 18:20:00,
2013-11-25 13:25:00,30.8,25.7,29.78,SW,227,11.2,30.8,81,0.00,,,0.00,VWS V14.01,2013-11-25 18:25:00,
2013-11-25 13:30:00,30.9,25.5,29.77,West,266,4.2,30.8,80,0.00,,,0.00,VWS V14.01,2013-11-25 18:30:00,
2013-11-25 13:35:00,30.9,25.5,29.77,WSW,256,5.6,30.8,80,0.00,,,0.00,VWS V14.01,2013-11-25 18:35:00,
2013-11-25 13:40:00,30.9,25.2,29.77,West,260,4.2,30.8,79,0.00,,,0.00,VWS V14.01,2013-11-25 18:40:00,
2013-11-25 13:45:00,30.9,25.5,29.77,West,261,16.8,30.8,80,0.00,,,0.00,VWS V14.01,2013-11-25 18:45:00,
2013-11-25 13:50:00,30.9,25.5,29.77,West,280,7.0,30.8,80,0.00,,,0.00,VWS V14.01,2013-11-25 18:50:00,
2013-11-25 13:55:00,30.9,25.5,29.77,WSW,246,9.8,30.8,80,0.00,,,0.00,VWS V14.01,2013-11-25 18:55:00,
2013-11-25 14:00:00,30.9,25.5,29.76,West,266,4.2,16.8,80,0.00,,,0.00,VWS V14.01,2013-11-25 19:00:00,
2013-11-25 14:05:00,30.9,25.5,29.76,SW,232,11.2,21.0,80,0.00,,,0.00,VWS V14.01,2013-11-25 19:05:00,
2013-11-25 14:10:00,30.9,25.8,29.76,NW,307,8.4,21.0,81,0.00,,,0.00,VWS V14.01,2013-11-25 19:10:00,
2013-11-25 14:15:00,30.9,25.5,29.76,WSW,245,15.4,21.0,80,0.00,,,0.00,VWS V14.01,2013-11-25 19:15:00,
2013-11-25 14:20:00,31.0,25.6,29.76,SW,226,11.2,21.0,80,0.00,,,0.00,VWS V14.01,2013-11-25 19:20:00,
2013-11-25 14:25:00,31.1,25.4,29.76,WSW,242,15.4,22.4,79,0.00,,,0.00,VWS V14.01,2013-11-25 19:25:00,
2013-11-25 14:30:00,31.3,25.2,29.76,SW,226,15.4,30.8,78,0.00,,,0.00,VWS V14.01,2013-11-25 19:30:00,
2013-11-25 14:35:00,31.5,25.8,29.75,West,260,16.8,30.8,79,0.00,,,0.00,VWS V14.01,2013-11-25 19:35:00,
2013-11-25 14:40:00,31.5,25.8,29.75,WSW,254,14.0,30.8,79,0.00,,,0.00,VWS V14.01,2013-11-25 19:40:00,
2013-11-25 14:45:00,31.3,25.9,29.76,SSW,197,9.8,30.8,80,0.00,,,0.00,VWS V14.01,2013-11-25 19:45:00,
2013-11-25 14:50:00,31.3,25.9,29.76,SW,235,8.4,30.8,80,0.00,,,0.00,VWS V14.01,2013-11-25 19:50:00,
2013-11-25 14:55:00,31.2,25.8,29.76,West,267,7.0,32.2,80,0.00,,,0.00,VWS V14.01,2013-11-25 19:55:00,
2013-11-25 15:00:00,31.1,26.0,29.76,SW,235,4.2,32.2,81,0.00,,,0.00,VWS V14.01,2013-11-25 20:00:00,
2013-11-25 15:05:00,31.0,26.2,29.76,NW,307,5.6,32.2,82,0.00,,,0.00,VWS V14.01,2013-11-25 20:05:00,
2013-11-25 15:10:00,30.9,26.1,29.76,SW,230,18.2,32.2,82,0.00,,,0.00,VWS V14.01,2013-11-25 20:10:00,
2013-11-25 15:15:00,30.8,26.3,29.76,SW,228,1.4,32.2,83,0.00,,,0.00,VWS V14.01,2013-11-25 20:15:00,
2013-11-25 15:20:00,30.8,26.3,29.77,WSW,247,5.6,32.2,83,0.00,,,0.00,VWS V14.01,2013-11-25 20:20:00,
2013-11-25 15:25:00,30.8,26.3,29.77,SW,223,7.0,32.2,83,0.00,,,0.00,VWS V14.01,2013-11-25 20:25:00,
2013-11-25 15:30:00,30.8,26.3,29.77,West,271,9.8,32.2,83,0.00,,,0.00,VWS V14.01,2013-11-25 20:30:00,
2013-11-25 15:35:00,30.8,26.3,29.77,SW,234,19.6,32.2,83,0.00,,,0.00,VWS V14.01,2013-11-25 20:35:00,
2013-11-25 15:40:00,30.7,26.2,29.77,SW,236,15.4,32.2,83,0.00,,,0.00,VWS V14.01,2013-11-25 20:40:00,
2013-11-25 15:45:00,30.7,26.2,29.77,SW,226,5.6,32.2,83,0.00,,,0.00,VWS V14.01,2013-11-25 20:45:00,
2013-11-25 15:50:00,30.8,26.3,29.78,NW,311,8.4,32.2,83,0.00,,,0.00,VWS V14.01,2013-11-25 20:50:00,
2013-11-25 15:55:00,30.8,26.3,29.78,WSW,240,14.0,32.2,83,0.00,,,0.00,VWS V14.01,2013-11-25 20:55:00,
2013-11-25 16:00:00,30.7,26.2,29.78,SW,228,8.4,19.6,83,0.00,,,0.00,VWS V14.01,2013-11-25 21:00:00,
2013-11-25 16:05:00,30.7,26.2,29.78,SW,226,15.4,19.6,83,0.00,,,0.00,VWS V14.01,2013-11-25 21:05:00,
2013-11-25 16:10:00,30.8,26.3,29.79,West,273,9.8,19.6,83,0.00,,,0.00,VWS V14.01,2013-11-25 21:10:00,
2013-11-25 16:15:00,30.8,26.3,29.79,WSW,250,8.4,19.6,83,0.00,,,0.00,VWS V14.01,2013-11-25 21:15:00,
2013-11-25 16:20:00,30.8,26.3,29.79,SW,215,9.8,22.4,83,0.00,,,0.00,VWS V14.01,2013-11-25 21:20:00,
2013-11-25 16:25:00,30.9,26.4,29.79,WSW,245,8.4,22.4,83,0.00,,,0.00,VWS V14.01,2013-11-25 21:25:00,
2013-11-25 16:30:00,30.8,26.3,29.79,WSW,246,8.4,22.4,83,0.00,,,0.00,VWS V14.01,2013-11-25 21:30:00,
2013-11-25 16:35:00,30.9,26.4,29.79,WSW,246,8.4,22.4,83,0.00,,,0.00,VWS V14.01,2013-11-25 21:35:00,
2013-11-25 16:40:00,30.9,26.4,29.80,West,259,5.6,22.4,83,0.00,,,0.00,VWS V14.01,2013-11-25 21:40:00,
2013-11-25 16:45:00,30.9,26.4,29.79,WSW,238,11.2,22.4,83,0.00,,,0.00,VWS V14.01,2013-11-25 21:45:00,
2013-11-25 16:50:00,30.9,26.1,29.80,SSW,203,12.6,23.8,82,0.00,,,0.00,VWS V14.01,2013-11-25 21:50:00,
2013-11-25 16:55:00,30.8,26.0,29.80,WNW,292,5.6,23.8,82,0.00,,,0.00,VWS V14.01,2013-11-25 21:55:00,
2013-11-25 17:00:00,30.7,25.9,29.80,WSW,248,11.2,23.8,82,0.00,,,0.00,VWS V14.01,2013-11-25 22:00:00,
2013-11-25 17:05:00,30.5,26.0,29.80,West,266,11.2,23.8,83,0.00,,,0.00,VWS V14.01,2013-11-25 22:05:00,
2013-11-25 17:10:00,30.4,25.9,29.80,SW,236,2.8,23.8,83,0.00,,,0.00,VWS V14.01,2013-11-25 22:10:00,
2013-11-25 17:15:00,30.3,25.8,29.80,WSW,249,7.0,23.8,83,0.00,,,0.00,VWS V14.01,2013-11-25 22:15:00,
2013-11-25 17:20:00,30.2,25.7,29.80,WSW,238,14.0,23.8,83,0.00,,,0.00,VWS V14.01,2013-11-25 22:20:00,
2013-11-25 17:25:00,30.2,25.7,29.80,WNW,298,7.0,23.8,83,0.00,,,0.00,VWS V14.01,2013-11-25 22:25:00,
2013-11-25 17:30:00,30.3,25.8,29.80,WSW,253,7.0,23.8,83,0.00,,,0.00,VWS V14.01,2013-11-25 22:30:00,
2013-11-25 17:35:00,30.5,25.7,29.80,SW,215,8.4,23.8,82,0.00,,,0.00,VWS V14.01,2013-11-25 22:35:00,
2013-11-25 17:40:00,30.6,25.8,29.81,SW,215,4.2,23.8,82,0.00,,,0.00,VWS V14.01,2013-11-25 22:40:00,
2013-11-25 17:45:00,30.6,25.8,29.81,WSW,240,7.0,23.8,82,0.00,,,0.00,VWS V14.01,2013-11-25 22:45:00,
2013-11-25 17:50:00,30.6,25.8,29.81,WSW,240,5.6,23.8,82,0.00,,,0.00,VWS V14.01,2013-11-25 22:50:00,
2013-11-25 17:55:00,30.8,26.0,29.81,WSW,250,8.4,23.8,82,0.00,,,0.00,VWS V14.01,2013-11-25 22:55:00,
2013-11-25 18:00:00,30.8,26.0,29.82,WSW,245,9.8,15.4,82,0.00,,,0.00,VWS V14.01,2013-11-25 23:00:00,
2013-11-25 18:05:00,30.8,26.0,29.82,WNW,284,11.2,16.8,82,0.00,,,0.00,VWS V14.01,2013-11-25 23:05:00,
2013-11-25 18:10:00,30.9,26.1,29.82,WSW,255,7.0,16.8,82,0.00,,,0.00,VWS V14.01,2013-11-25 23:10:00,
2013-11-25 18:15:00,30.9,26.1,29.82,WSW,238,14.0,18.2,82,0.00,,,0.00,VWS V14.01,2013-11-25 23:15:00,
2013-11-25 18:20:00,31.0,26.2,29.82,WSW,239,5.6,18.2,82,0.00,,,0.00,VWS V14.01,2013-11-25 23:20:00,
2013-11-25 18:25:00,30.9,25.8,29.82,WSW,248,5.6,19.6,81,0.00,,,0.00,VWS V14.01,2013-11-25 23:25:00,
2013-11-25 18:30:00,30.7,25.9,29.82,WSW,242,9.8,19.6,82,0.00,,,0.00,VWS V14.01,2013-11-25 23:30:00,
2013-11-25 18:35:00,30.6,25.8,29.83,WSW,257,7.0,19.6,82,0.00,,,0.00,VWS V14.01,2013-11-25 23:35:00,
2013-11-25 18:40:00,30.6,25.8,29.83,West,269,5.6,22.4,82,0.00,,,0.00,VWS V14.01,2013-11-25 23:40:00,
2013-11-25 18:45:00,30.6,25.8,29.83,West,269,11.2,22.4,82,0.00,,,0.00,VWS V14.01,2013-11-25 23:45:00,
2013-11-25 18:50:00,30.5,25.7,29.83,WSW,257,2.8,22.4,82,0.00,,,0.00,VWS V14.01,2013-11-25 23:50:00,
2013-11-25 18:55:00,30.5,25.7,29.83,WSW,253,7.0,22.4,82,0.00,,,0.00,VWS V14.01,2013-11-25 23:55:00,
2013-11-25 19:00:00,30.5,25.7,29.83,WSW,246,7.0,22.4,82,0.00,,,0.00,VWS V14.01,2013-11-26 00:00:00,
2013-11-25 19:05:00,30.4,25.6,29.83,WSW,255,7.0,22.4,82,0.00,,,0.00,VWS V14.01,2013-11-26 00:05:00,
2013-11-25 19:10:00,30.5,26.0,29.83,NNW,328,5.6,22.4,83,0.00,,,0.00,VWS V14.01,2013-11-26 00:10:00,
2013-11-25 19:15:00,30.9,26.1,29.84,SW,236,15.4,22.4,82,0.00,,,0.00,VWS V14.01,2013-11-26 00:15:00,
2013-11-25 19:20:00,31.1,26.3,29.84,SW,232,7.0,22.4,82,0.00,,,0.00,VWS V14.01,2013-11-26 00:20:00,
2013-11-25 19:25:00,31.3,26.2,29.84,WSW,253,7.0,22.4,81,0.00,,,0.00,VWS V14.01,2013-11-26 00:25:00,
2013-11-25 19:30:00,31.3,26.5,29.84,West,262,9.8,22.4,82,0.00,,,0.00,VWS V14.01,2013-11-26 00:30:00,
2013-11-25 19:35:00,31.2,26.4,29.84,WSW,250,9.8,22.4,82,0.00,,,0.00,VWS V14.01,2013-11-26 00:35:00,
2013-11-25 19:40:00,31.3,26.5,29.84,WSW,257,7.0,22.4,82,0.00,,,0.00,VWS V14.01,2013-11-26 00:40:00,
2013-11-25 19:45:00,31.5,26.6,29.84,West,262,4.2,22.4,82,0.00,,,0.00,VWS V14.01,2013-11-26 00:45:00,
2013-11-25 19:50:00,31.8,26.6,29.84,WNW,284,8.4,22.4,81,0.00,,,0.00,VWS V14.01,2013-11-26 00:50:00,
2013-11-25 19:55:00,32.1,26.9,29.85,WSW,257,5.6,22.4,81,0.00,,,0.00,VWS V14.01,2013-11-26 00:55:00,
2013-11-25 20:00:00,32.2,27.0,29.84,WSW,239,9.8,16.8,81,0.00,,,0.00,VWS V14.01,2013-11-26 01:00:00,
2013-11-25 20:05:00,32.3,27.1,29.85,West,260,8.4,18.2,81,0.00,,,0.00,VWS V14.01,2013-11-26 01:05:00,
2013-11-25 20:10:00,32.4,27.2,29.85,WNW,291,7.0,18.2,81,0.00,,,0.00,VWS V14.01,2013-11-26 01:10:00,
2013-11-25 20:15:00,32.4,27.2,29.85,SW,226,8.4,18.2,81,0.00,,,0.00,VWS V14.01,2013-11-26 01:15:00,
2013-11-25 20:20:00,32.3,27.1,29.85,WSW,248,12.6,18.2,81,0.00,,,0.00,VWS V14.01,2013-11-26 01:20:00,
2013-11-25 20:25:00,32.3,27.1,29.85,West,269,14.0,18.2,81,0.00,,,0.00,VWS V14.01,2013-11-26 01:25:00,
2013-11-25 20:30:00,32.4,27.2,29.85,West,267,9.8,19.6,81,0.00,,,0.00,VWS V14.01,2013-11-26 01:30:00,
2013-11-25 20:35:00,32.5,27.3,29.85,East,96,8.4,19.6,81,0.00,,,0.00,VWS V14.01,2013-11-26 01:35:00,
2013-11-25 20:40:00,32.5,27.0,29.85,West,266,5.6,19.6,80,0.00,,,0.00,VWS V14.01,2013-11-26 01:40:00,
2013-11-25 20:45:00,32.6,27.4,29.85,West,276,4.2,19.6,81,0.00,,,0.00,VWS V14.01,2013-11-26 01:45:00,
2013-11-25 20:50:00,32.7,27.5,29.85,WSW,242,16.8,21.0,81,0.00,,,0.00,VWS V14.01,2013-11-26 01:50:00,
2013-11-25 20:55:00,32.7,27.5,29.85,West,276,9.8,23.8,81,0.00,,,0.00,VWS V14.01,2013-11-26 01:55:00,
2013-11-25 21:00:00,32.8,27.6,29.85,WSW,256,9.8,23.8,81,0.00,,,0.00,VWS V14.01,2013-11-26 02:00:00,
2013-11-25 21:05:00,32.8,27.6,29.85,WNW,297,5.6,23.8,81,0.00,,,0.00,VWS V14.01,2013-11-26 02:05:00,
2013-11-25 21:10:00,32.8,27.6,29.86,SSW,213,7.0,23.8,81,0.00,,,0.00,VWS V14.01,2013-11-26 02:10:00,
2013-11-25 21:15:00,32.9,27.7,29.86,WNW,300,12.6,23.8,81,0.00,,,0.00,VWS V14.01,2013-11-26 02:15:00,
2013-11-25 21:20:00,32.9,27.7,29.86,WNW,291,11.2,23.8,81,0.00,,,0.00,VWS V14.01,2013-11-26 02:20:00,
2013-11-25 21:25:00,32.9,27.7,29.86,West,266,8.4,23.8,81,0.00,,,0.00,VWS V14.01,2013-11-26 02:25:00,
2013-11-25 21:30:00,32.9,27.7,29.85,West,273,5.6,23.8,81,0.00,,,0.00,VWS V14.01,2013-11-26 02:30:00,
2013-11-25 21:35:00,33.0,27.8,29.86,SW,225,7.0,23.8,81,0.00,,,0.00,VWS V14.01,2013-11-26 02:35:00,
2013-11-25 21:40:00,33.1,27.9,29.86,WNW,283,4.2,23.8,81,0.00,,,0.00,VWS V14.01,2013-11-26 02:40:00,
2013-11-25 21:45:00,33.1,28.2,29.86,West,271,16.8,23.8,82,0.00,,,0.00,VWS V14.01,2013-11-26 02:45:00,
2013-11-25 21:50:00,33.1,27.9,29.86,WSW,255,12.6,23.8,81,0.00,,,0.00,VWS V14.01,2013-11-26 02:50:00,
2013-11-25 21:55:00,33.2,28.0,29.85,NW,309,11.2,23.8,81,0.00,,,0.00,VWS V14.01,2013-11-26 02:55:00,
2013-11-25 21:59:00,33.2,28.0,29.85,WSW,240,7.0,9.8,81,0.00,,,0.00,VWS V14.01,2013-11-26 02:59:00,
2013-11-25 22:00:00,33.2,28.0,29.85,West,281,9.8,23.8,81,0.00,,,0.00,VWS V14.01,2013-11-26 03:00:00,
2013-11-25 22:04:00,33.2,28.0,29.85,SW,235,9.8,14.0,81,0.00,,,0.00,VWS V14.01,2013-11-26 03:04:00,
2013-11-25 22:09:00,33.2,28.0,29.85,WNW,283,8.4,14.0,81,0.00,,,0.00,VWS V14.01,2013-11-26 03:09:00,
2013-11-25 22:14:00,33.3,28.1,29.85,SW,235,8.4,18.2,81,0.00,,,0.00,VWS V14.01,2013-11-26 03:14:00,
2013-11-25 22:19:00,33.3,28.1,29.85,WSW,252,9.8,18.2,81,0.00,,,0.00,VWS V14.01,2013-11-26 03:19:00,
2013-11-25 22:24:00,33.3,28.1,29.85,WNW,283,7.0,18.2,81,0.00,,,0.00,VWS V14.01,2013-11-26 03:24:00,
2013-11-25 22:29:00,33.4,28.2,29.85,WSW,253,7.0,18.2,81,0.00,,,0.00,VWS V14.01,2013-11-26 03:29:00,
2013-11-25 22:34:00,33.4,28.2,29.85,WNW,298,5.6,22.4,81,0.00,,,0.00,VWS V14.01,2013-11-26 03:34:00,
2013-11-25 22:39:00,33.5,28.3,29.85,West,281,7.0,22.4,81,0.00,,,0.00,VWS V14.01,2013-11-26 03:39:00,
2013-11-25 22:44:00,33.5,28.3,29.85,WSW,243,5.6,22.4,81,0.00,,,0.00,VWS V14.01,2013-11-26 03:44:00,
2013-11-25 22:49:00,33.4,28.2,29.85,West,276,9.8,22.4,81,0.00,,,0.00,VWS V14.01,2013-11-26 03:49:00,
2013-11-25 22:54:00,33.4,28.2,29.85,West,269,1.4,22.4,81,0.00,,,0.00,VWS V14.01,2013-11-26 03:54:00,
2013-11-25 22:59:00,33.5,28.3,29.85,SW,224,8.4,22.4,81,0.00,,,0.00,VWS V14.01,2013-11-26 03:59:00,
2013-11-25 23:00:00,33.2,28.0,29.86,SW,232,2.8,28.0,81,0.00,,,0.00,VWS V14.01,2013-11-26 04:00:00,
2013-11-25 23:04:00,33.5,28.3,29.85,SW,235,8.4,22.4,81,0.00,,,0.00,VWS V14.01,2013-11-26 04:04:00,
2013-11-25 23:09:00,33.5,28.3,29.85,WSW,257,11.2,28.0,81,0.00,,,0.00,VWS V14.01,2013-11-26 04:09:00,
2013-11-25 23:14:00,33.5,28.3,29.85,West,266,4.2,28.0,81,0.00,,,0.00,VWS V14.01,2013-11-26 04:14:00,
2013-11-25 23:19:00,33.5,28.3,29.86,WSW,245,14.0,28.0,81,0.00,,,0.00,VWS V14.01,2013-11-26 04:19:00,
2013-11-25 23:24:00,33.5,28.3,29.86,West,262,8.4,28.0,81,0.00,,,0.00,VWS V14.01,2013-11-26 04:24:00,
2013-11-25 23:29:00,33.4,27.9,29.86,West,274,7.0,28.0,80,0.00,,,0.00,VWS V14.01,2013-11-26 04:29:00,
2013-11-25 23:34:00,33.3,28.1,29.86,West,259,7.0,28.0,81,0.00,,,0.00,VWS V14.01,2013-11-26 04:34:00,
2013-11-25 23:39:00,33.3,28.1,29.86,West,270,2.8,28.0,81,0.00,,,0.00,VWS V14.01,2013-11-26 04:39:00,
2013-11-25 23:44:00,33.2,28.0,29.86,West,278,2.8,28.0,81,0.00,,,0.00,VWS V14.01,2013-11-26 04:44:00,
2013-11-25 23:49:00,33.2,28.0,29.86,West,262,4.2,28.0,81,0.00,,,0.00,VWS V14.01,2013-11-26 04:49:00,
2013-11-25 23:54:00,33.1,27.9,29.86,SW,224,8.4,28.0,81,0.00,,,0.00,VWS V14.01,2013-11-26 04:54:00,
2013-11-25 23:59:00,33.2,28.0,29.86,SW,232,2.8,28.0,81,0.00,,,0.00,VWS V14.01,2013-11-26 04:59:00,